Temp
9 9 10 10 10 11 11 10 9 10 11 12 13 13 13 13 12 12 12 12 12 11 11 12 12 12 12 12 10 9 9 7 7 7 6 5 4 4 3 3 2 2 1 -1
5 8 9 8 10 10 11 11 12 12 11 13 13 13 13 13 13 13 12 12 12 12 12 12 11 11 11 11 11 10 8 8 7 6 6 5 4 3 3 2 1 1 -0 -1
4 7 7 5 7 9 9 10 11 9 11 12 12 12 12 12 12 11 10 10 9 9 10 11 11 11 10 10 10 10 9 8 7 6 5 5 4 3 1 1 0 0 -1 -2
4 5 3 8 10 11 10 10 11 11 10 11 11 11 12 11 10 9 9 9 9 9 9 10 10 10 10 10 9 9 9 8 7 6 5 4 4 3 1 0 -0 -1 -2 -3
3 4 5 7 8 9 9 9 8 8 9 10 10 10 11 10 7 6 7 8 8 8 8 7 9 9 9 9 8 8 9 8 7 6 5 4 3 2 1 -0 -2 -2 -3 -4
3 2 2 6 9 9 9 6 8 8 9 10 9 8 9 8 8 8 8 8 8 9 8 7 7 9 9 8 7 7 8 8 8 6 5 4 4 2 0 -1 -2 -3 -4 -4
3 2 4 7 8 8 5 5 6 7 7 8 7 7 6 7 7 8 8 8 8 8 9 7 6 8 7 7 6 6 6 6 7 7 5 4 3 1 -0 -2 -3 -4 -4 -5
4 3 2 7 8 6 6 7 7 7 7 7 7 7 7 6 6 7 7 8 7 8 9 8 8 6 5 5 4 4 4 3 4 4 4 2 1 -0 -1 -3 -4 -4 -5 -6
4 4 6 6 7 7 7 7 6 6 6 6 6 6 6 7 7 7 7 8 7 8 8 7 4 4 3 2 1 1 1 0 1 0 0 -0 -1 -2 -4 -4 -5 -6 -6 -6
4 5 6 6 6 6 6 5 5 6 6 6 5 5 5 5 6 6 6 7 5 7 7 6 5 3 2 1 0 -0 -1 -1 -2 -2 -2 -2 -3 -3 -4 -5 -5 -5 -6 -6
4 5 5 5 5 5 5 6 6 6 5 6 5 4 5 5 4 4 4 6 7 7 5 4 4 2 2 0 -1 -2 -3 -3 -3 -3 -4 -4 -5 -4 -5 -5 -4 -5 -6 -6
2 4 4 4 5 6 6 5 5 5 6 5 3 5 5 5 5 5 6 6 6 5 4 3 2 1 -0 -1 -2 -3 -3 -4 -4 -5 -5 -5 -5 -6 -6 -5 -5 -5 -5 -6
5 5 5 4 3 4 4 4 3 3 3 4 5 5 4 4 5 5 6 5 5 4 3 2 1 -1 -3 -3 -3 -4 -4 -5 -5 -5 -5 -6 -6 -5 -6 -7 -7 -7 -7 -8
4 3 2 2 1 1 1 2 2 1 2 3 3 5 5 6 5 6 5 5 4 3 2 1 -1 -2 -3 -4 -4 -4 -5 -5 -5 -6 -6 -5 -5 -6 -6 -6 -7 -8 -9 -9
1 1 -0 -1 -1 -1 -1 -1 -0 -0 1 2 3 4 6 6 5 5 4 4 3 1 1 -0 -1 -2 -4 -4 -4 -4 -5 -5 -5 -6 -6 -6 -6 -6 -6 -7 -7 -8 -9 -9
-1 -2 -2 -1 -1 -1 -2 -2 -2 -1 -0 1 2 3 4 5 5 4 3 3 2 1 -0 -1 -2 -3 -4 -5 -5 -5 -5 -5 -5 -6 -6 -6 -6 -7 -8 -8 -9 -9 -10 -9
-2 -2 -2 -2 -3 -3 -3 -3 -3 -3 -2 -1 1 2 2 2 2 3 2 1 -1 -2 -2 -3 -3 -4 -5 -5 -5 -5 -6 -6 -6 -6 -7 -7 -8 -9 -8 -9 -9 -10 -10 -10
-3 -3 -3 -3 -3 -3 -4 -3 -3 -3 -2 -1 -0 0 2 2 2 2 1 -2 -3 -4 -4 -4 -5 -5 -5 -5 -5 -5 -6 -6 -6 -6 -7 -8 -8 -8 -9 -9 -9 -9 -10 -10
-3 -4 -4 -4 -4 -4 -3 -3 -2 -2 -2 -1 -1 0 1 1 -0 -1 -2 -3 -4 -5 -5 -5 -5 -6 -6 -6 -5 -5 -6 -6 -7 -7 -8 -8 -8 -9 -9 -9 -9 -10 -10 -10
-4 -4 -4 -4 -4 -4 -3 -2 -2 -2 -2 -1 -1 -0 0 -1 -2 -3 -4 -5 -5 -5 -5 -6 -6 -6 -6 -5 -5 -6 -6 -6 -6 -7 -8 -8 -9 -9 -9 -10 -10 -10 -10 -11
-4 -4 -4 -4 -4 -3 -3 -2 -2 -1 -1 -1 -1 -1 -1 -2 -4 -4 -5 -6 -6 -5 -5 -5 -6 -6 -6 -6 -6 -6 -6 -6 -7 -8 -8 -9 -9 -10 -10 -10 -10 -10 -10 -11
-4 -4 -4 -4 -4 -3 -3 -2 -2 -2 -2 -2 -2 -3 -3 -4 -5 -5 -5 -4 -5 -5 -5 -6 -5 -5 -5 -7 -6 -6 -7 -7 -8 -9 -9 -9 -9 -10 -10 -10 -11 -11 -11 -11
-5 -5 -5 -4 -4 -4 -4 -3 -3 -3 -4 -4 -4 -4 -4 -4 -5 -5 -5 -5 -4 -5 -5 -5 -5 -5 -6 -7 -6 -6 -7 -8 -9 -9 -9 -10 -10 -10 -10 -10 -11 -11 -11 -12
-4 -5 -5 -4 -4 -4 -4 -4 -4 -4 -4 -4 -4 -4 -4 -5 -5 -5 -4 -4 -4 -5 -6 -5 -5 -5 -6 -5 -6 -6 -8 -9 -9 -9 -10 -10 -10 -10 -10 -11 -11 -12 -12 -12
-4 -4 -5 -5 -4 -4 -4 -4 -4 -4 -4 -4 -4 -5 -5 -5 -4 -5 -4 -3 -4 -5 -5 -4 -5 -5 -5 -6 -6 -7 -8 -9 -10 -10 -10 -10 -10 -11 -11 -11 -12 -12 -13 -13
-4 -4 -4 -5 -4 -4 -4 -5 -5 -4 -4 -4 -4 -4 -5 -4 -5 -4 -4 -3 -4 -4 -4 -4 -5 -5 -6 -6 -7 -7 -9 -10 -10 -10 -11 -11 -11 -11 -12 -12 -13 -13 -14 -14
-4 -5 -5 -5 -5 -5 -4 -5 -5 -5 -4 -4 -4 -4 -4 -4 -4 -3 -3 -3 -4 -4 -4 -4 -5 -6 -6 -6 -7 -8 -10 -10 -11 -11 -11 -11 -12 -12 -13 -13 -13 -14 -13 -14
Height
1438 1437 1438 1436 1430 1424 1422 1421 1423 1416 1417 1410 1409 1407 1407 1407 1406 1407 1407 1406 1405 1404 1401 1402 1401 1400 1400 1398 1396 1396 1398 1400 1402 1402 1404 1405 1406 1408 1412 1414 1418 1424 1428 1433
1444 1439 1436 1434 1425 1421 1417 1412 1406 1405 1403 1403 1404 1404 1404 1402 1401 1400 1400 1401 1401 1400 1397 1397 1395 1393 1394 1394 1394 1393 1391 1392 1395 1397 1401 1401 1401 1403 1405 1410 1414 1419 1423 1427
1444 1437 1434 1439 1428 1422 1417 1415 1412 1410 1406 1405 1402 1403 1402 1401 1399 1398 1399 1399 1399 1398 1394 1392 1390 1391 1391 1391 1391 1389 1386 1385 1388 1391 1394 1395 1396 1398 1400 1405 1409 1413 1418 1423
1443 1439 1445 1421 1418 1414 1411 1408 1406 1404 1405 1404 1402 1400 1399 1399 1400 1399 1400 1400 1398 1396 1395 1390 1387 1386 1386 1386 1384 1383 1381 1379 1382 1385 1385 1389 1393 1393 1395 1399 1404 1408 1412 1418
1444 1437 1427 1423 1418 1412 1409 1407 1412 1408 1406 1402 1400 1397 1396 1399 1401 1403 1400 1398 1395 1393 1390 1387 1383 1383 1382 1380 1380 1378 1376 1372 1374 1374 1377 1382 1388 1390 1394 1397 1402 1405 1409 1414
1442 1438 1432 1416 1410 1410 1407 1406 1409 1409 1404 1400 1397 1394 1392 1393 1396 1399 1397 1394 1391 1389 1384 1382 1381 1380 1376 1374 1373 1371 1370 1369 1368 1368 1371 1375 1381 1385 1391 1394 1398 1403 1409 1416
1430 1431 1420 1410 1411 1410 1413 1413 1408 1406 1403 1399 1399 1398 1396 1393 1394 1390 1388 1385 1385 1385 1379 1376 1377 1374 1371 1369 1367 1366 1365 1366 1365 1364 1366 1369 1373 1379 1383 1390 1397 1401 1407 1412
1422 1424 1422 1409 1407 1409 1407 1404 1401 1398 1398 1396 1393 1390 1389 1389 1388 1385 1383 1381 1380 1375 1371 1369 1370 1367 1367 1364 1362 1362 1361 1362 1362 1361 1359 1362 1368 1374 1381 1387 1395 1399 1405 1411
1424 1415 1408 1406 1404 1401 1399 1396 1394 1393 1391 1390 1387 1384 1383 1382 1382 1380 1377 1374 1372 1371 1367 1364 1367 1362 1360 1360 1360 1359 1358 1358 1359 1359 1358 1361 1365 1372 1379 1387 1393 1399 1405 1410
1413 1405 1404 1400 1398 1396 1393 1392 1389 1386 1383 1381 1379 1377 1375 1376 1375 1371 1369 1365 1369 1364 1363 1362 1358 1355 1356 1357 1356 1355 1354 1355 1356 1358 1360 1365 1368 1373 1380 1386 1392 1399 1403 1408
1404 1398 1398 1394 1392 1389 1385 1382 1380 1378 1376 1373 1372 1369 1367 1365 1366 1362 1366 1361 1360 1359 1359 1357 1355 1354 1354 1354 1354 1353 1354 1354 1355 1359 1362 1368 1372 1377 1382 1388 1392 1397 1403 1407
1401 1396 1393 1387 1385 1381 1376 1375 1374 1370 1365 1362 1366 1362 1360 1357 1356 1356 1355 1356 1356 1356 1356 1353 1353 1353 1352 1352 1353 1353 1354 1355 1358 1362 1366 1371 1375 1380 1387 1392 1396 1401 1405 1408
1390 1386 1382 1378 1374 1372 1369 1366 1363 1362 1359 1357 1353 1352 1352 1352 1349 1351 1350 1350 1351 1351 1351 1350 1351 1350 1351 1351 1353 1354 1355 1358 1361 1365 1369 1372 1377 1382 1386 1394 1399 1402 1405 1408
1386 1382 1376 1374 1368 1366 1363 1359 1357 1355 1352 1349 1348 1345 1343 1343 1343 1342 1343 1345 1346 1346 1346 1347 1347 1348 1348 1352 1353 1355 1357 1360 1362 1366 1370 1374 1378 1384 1388 1392 1397 1402 1406 1409
1382 1379 1373 1367 1363 1358 1355 1351 1347 1344 1342 1339 1338 1337 1336 1335 1336 1336 1337 1339 1341 1342 1343 1343 1344 1346 1349 1352 1354 1355 1358 1361 1364 1368 1373 1377 1380 1386 1390 1394 1398 1402 1405 1406
1376 1371 1366 1362 1357 1352 1347 1342 1339 1335 1334 1332 1331 1331 1330 1327 1327 1330 1332 1334 1335 1337 1339 1340 1341 1344 1347 1351 1354 1357 1359 1362 1366 1370 1374 1378 1382 1387 1391 1394 1397 1400 1402 1402
1372 1366 1360 1356 1351 1343 1337 1332 1328 1325 1325 1326 1325 1325 1326 1323 1324 1326 1330 1331 1332 1334 1336 1337 1339 1342 1346 1349 1353 1357 1360 1364 1368 1372 1376 1380 1384 1387 1391 1393 1396 1399 1400 1400
1372 1367 1360 1353 1344 1336 1327 1321 1316 1314 1315 1318 1320 1319 1320 1321 1321 1322 1325 1327 1330 1332 1333 1335 1338 1342 1346 1349 1353 1357 1361 1365 1369 1372 1376 1380 1383 1386 1390 1392 1396 1397 1398 1401
1369 1362 1354 1347 1340 1332 1323 1315 1309 1308 1310 1314 1316 1316 1317 1318 1319 1320 1322 1324 1327 1329 1332 1335 1338 1342 1345 1350 1354 1357 1361 1365 1369 1373 1376 1379 1382 1385 1389 1392 1394 1397 1398 1401
1364 1358 1350 1342 1334 1328 1322 1316 1312 1311 1311 1313 1314 1315 1315 1316 1317 1319 1321 1324 1327 1328 1331 1335 1339 1343 1347 1351 1355 1358 1362 1365 1368 1371 1374 1378 1381 1385 1388 1390 1393 1395 1396 1398
1361 1354 1348 1340 1333 1328 1323 1319 1315 1313 1313 1312 1312 1313 1313 1314 1316 1318 1321 1324 1326 1329 1333 1337 1341 1345 1348 1352 1355 1358 1362 1365 1368 1371 1374 1378 1381 1383 1386 1388 1391 1393 1395 1396
1359 1354 1347 1340 1334 1328 1324 1320 1317 1314 1312 1311 1310 1311 1312 1313 1316 1320 1322 1324 1326 1330 1334 1338 1342 1346 1350 1353 1355 1358 1361 1364 1368 1370 1374 1377 1379 1382 1384 1387 1389 1391 1392 1394
1359 1353 1348 1342 1336 1330 1325 1321 1317 1314 1313 1312 1312 1312 1313 1315 1317 1320 1322 1325 1328 1332 1336 1339 1342 1346 1350 1352 1355 1358 1361 1364 1367 1370 1373 1375 1378 1380 1382 1384 1386 1388 1389 1391
1357 1352 1347 1342 1337 1332 1327 1323 1319 1316 1314 1314 1314 1314 1315 1316 1320 1322 1324 1325 1329 1333 1336 1338 1342 1346 1348 1351 1354 1357 1359 1363 1366 1369 1371 1374 1376 1378 1380 1382 1383 1385 1386 1387
1355 1351 1347 1342 1337 1333 1329 1325 1322 1320 1317 1316 1315 1316 1317 1319 1321 1322 1324 1326 1329 1331 1334 1338 1341 1344 1347 1350 1353 1355 1358 1360 1363 1366 1369 1371 1373 1375 1377 1379 1380 1381 1381 1382
1354 1350 1346 1343 1339 1335 1330 1326 1323 1321 1319 1317 1316 1317 1318 1319 1320 1321 1323 1325 1328 1329 1332 1336 1339 1342 1345 1347 1350 1352 1355 1357 1360 1363 1366 1368 1370 1372 1373 1374 1376 1377 1377 1377
1351 1348 1344 1340 1337 1334 1330 1327 1323 1320 1319 1318 1317 1316 1317 1317 1317 1318 1321 1323 1325 1326 1329 1332 1335 1338 1341 1343 1346 1348 1351 1354 1356 1359 1362 1364 1366 1368 1369 1370 1371 1372 1373 1374
Wind_Speed
20 23 24 24 26 25 23 18 17 20 22 21 19 17 20 26 13 17 20 17 16 18 19 15 17 14 16 14 17 16 15 19 24 29 28 31 36 39 41 45 44 40 38 36
17 22 23 24 24 23 24 23 24 22 22 20 23 26 22 22 24 19 21 17 19 25 19 17 11 11 13 12 14 18 19 19 22 29 31 34 33 38 43 45 43 40 38 38
15 15 17 12 17 18 21 22 21 17 18 19 21 19 20 24 21 18 14 12 15 25 19 14 14 14 16 16 16 19 21 21 21 26 30 34 36 38 42 44 45 42 40 39
14 16 19 16 18 21 23 21 20 19 19 20 23 29 25 23 21 13 12 14 15 18 25 22 16 14 15 17 16 20 21 23 22 25 27 32 37 41 43 44 45 42 40 38
12 15 20 25 24 24 23 20 14 20 21 23 27 28 21 20 14 18 22 24 23 20 24 24 17 19 18 16 17 19 24 23 22 23 30 34 35 41 42 41 40 39 38 40
12 11 15 17 22 29 20 15 19 21 19 18 23 13 9 26 19 17 20 25 22 25 22 18 18 22 20 19 19 18 18 13 18 24 31 35 35 38 39 40 39 36 37 33
11 13 15 19 21 27 19 12 23 25 24 22 13 15 27 23 27 27 28 25 30 29 21 20 19 19 15 18 21 22 19 19 22 27 30 35 35 36 39 39 38 38 35 34
13 18 22 20 21 15 16 27 27 28 27 28 29 31 29 29 35 34 31 30 26 31 25 16 15 15 9 20 19 16 17 16 21 27 30 33 33 34 37 38 41 37 35 30
15 12 21 31 28 32 31 26 27 29 31 30 30 33 33 29 30 32 33 31 21 28 22 22 18 17 14 19 16 14 14 14 15 19 26 28 30 35 38 38 37 36 33 29
17 21 22 31 33 30 30 32 36 31 26 26 28 32 31 32 34 25 30 23 29 22 20 15 15 17 18 16 12 11 8 7 12 18 20 23 26 31 33 35 35 33 32 30
20 21 25 30 32 33 33 31 30 31 34 35 29 32 31 27 31 29 34 21 19 17 13 16 20 18 20 12 8 6 7 10 12 13 17 23 24 27 31 30 29 31 31 27
15 27 28 31 36 34 32 29 29 33 33 27 34 30 33 30 27 28 20 20 18 14 11 18 18 19 14 7 6 8 12 14 17 19 23 24 26 27 23 23 23 22 20 18
21 29 31 30 31 28 28 28 30 32 34 36 30 27 26 28 30 25 17 14 15 13 15 19 19 11 8 8 9 12 15 19 20 22 24 25 25 25 25 20 17 16 17 16
30 28 32 30 30 38 40 36 35 36 38 37 34 27 27 26 24 21 20 17 17 22 20 17 12 7 11 11 13 15 16 19 21 22 24 25 24 25 24 24 24 21 17 16
30 31 27 35 34 34 30 32 32 31 28 31 32 28 28 25 24 22 17 16 17 18 19 14 11 9 15 15 15 17 19 20 21 23 22 22 22 22 21 21 20 20 21 19
29 28 25 26 29 32 33 34 33 31 29 29 28 28 21 21 18 14 14 16 17 19 18 15 13 14 18 17 18 19 22 22 22 22 22 22 20 20 18 16 15 15 17 16
23 26 30 32 31 36 34 33 33 32 28 27 23 20 14 9 10 15 15 15 15 16 15 14 15 16 20 20 21 22 23 23 24 25 23 22 21 20 17 15 13 11 8 7
25 28 32 33 36 37 36 33 29 25 23 21 20 19 16 14 16 17 14 12 13 12 13 14 15 19 22 23 24 25 26 25 23 21 21 19 18 16 17 15 13 10 11 12
27 30 33 34 32 28 28 27 18 10 9 16 13 12 12 13 14 15 12 13 14 15 15 15 19 24 26 25 26 27 25 22 21 19 18 18 16 15 15 15 14 14 14 12
31 32 34 34 33 25 26 22 13 6 6 10 8 9 12 13 12 12 12 14 14 15 17 21 24 27 26 24 22 21 23 20 19 18 17 17 16 15 15 14 14 13 12 9
31 33 35 34 36 25 22 21 16 11 8 9 10 12 12 11 12 13 17 18 16 15 22 24 26 26 23 20 18 20 19 18 17 17 17 18 17 15 14 15 14 12 12 13
30 33 36 33 36 28 24 21 18 15 11 9 7 8 9 12 14 18 16 16 20 23 26 25 23 22 22 19 15 17 19 18 16 16 16 15 14 14 13 13 13 12 12 11
29 30 30 31 32 28 26 22 17 12 8 6 5 6 10 15 20 21 17 14 20 25 24 21 21 21 23 21 16 16 18 17 16 15 15 15 14 13 12 12 12 11 12 11
33 31 28 28 28 29 29 23 19 12 7 4 4 7 11 16 17 13 13 14 21 24 23 22 20 21 24 20 16 17 17 17 16 15 14 14 12 13 13 12 13 12 13 13
27 25 26 27 27 27 27 24 17 16 9 5 4 8 9 13 14 15 12 15 21 26 23 20 19 21 20 19 16 16 16 16 15 15 15 16 15 14 14 12 12 13 14 15
23 22 24 23 22 24 25 25 21 16 13 10 7 11 13 13 18 16 14 15 23 26 23 21 21 22 22 20 17 16 16 16 17 16 16 15 15 15 15 16 15 15 16 17
22 24 22 22 22 24 23 24 24 21 13 12 13 12 17 18 18 18 18 18 24 27 24 22 23 24 23 21 19 18 18 18 18 18 17 16 17 15 16 16 15 16 15 13
Wind_Direction
261 271 273 274 280 275 270 253 244 267 267 274 280 299 313 303 286 293 295 268 293 279 280 269 274 264 288 291 270 262 272 245 230 236 234 230 222 218 215 214 215 217 216 213
281 278 277 271 267 268 272 281 286 287 287 297 305 302 303 317 307 284 275 290 309 291 284 273 283 307 316 279 294 258 248 250 232 233 237 225 218 213 214 211 214 217 213 210
278 290 296 281 264 266 269 268 280 288 303 307 298 298 302 304 319 348 359 333 321 321 328 294 297 292 288 303 292 289 248 236 227 226 223 221 218 213 211 212 213 215 215 210
277 290 271 271 269 282 288 289 290 301 317 310 307 308 305 318 338 1 335 316 304 313 309 302 323 308 305 299 301 302 267 224 217 217 215 216 220 216 210 210 212 216 213 206
263 266 277 285 281 280 283 294 345 305 307 299 296 292 296 293 27 345 328 316 311 304 302 318 291 305 300 297 300 302 313 233 216 214 214 220 225 215 213 211 211 211 208 201
271 270 272 282 285 300 312 300 292 287 279 291 302 288 297 309 339 316 299 300 297 295 303 300 297 291 298 298 303 293 284 269 241 224 224 225 227 218 213 211 210 206 202 205
265 275 277 269 289 296 284 305 323 316 316 313 310 309 317 317 307 312 310 312 304 293 276 283 290 293 301 296 284 286 284 280 252 245 227 223 219 217 216 210 208 201 196 199
278 270 272 279 284 288 305 294 289 293 295 290 294 295 293 296 301 301 299 299 295 297 299 299 285 284 298 283 287 282 285 277 251 237 223 214 213 209 209 205 195 188 192 185
277 281 297 302 295 299 300 302 306 304 296 295 299 299 299 297 285 283 284 288 293 289 310 311 280 266 270 279 286 285 282 262 235 217 201 204 202 193 188 188 188 185 184 182
291 285 290 289 287 290 299 290 282 288 293 296 297 295 286 287 288 284 288 286 279 300 306 314 286 280 299 299 283 275 263 237 211 192 183 185 187 190 187 187 187 186 185 186
284 289 294 289 288 284 279 277 281 280 278 280 278 277 279 282 290 291 273 286 296 306 304 282 275 282 298 282 260 245 189 174 171 173 174 174 176 181 189 193 194 193 193 195
274 279 274 277 280 282 293 299 287 280 278 275 278 278 280 273 268 276 269 285 296 295 274 265 272 287 283 236 212 195 171 166 162 163 168 172 173 172 187 192 192 196 200 201
279 298 306 308 313 311 310 303 298 300 298 301 265 263 268 283 285 266 267 277 282 265 251 257 281 288 234 196 182 179 171 164 162 166 169 170 172 172 163 164 174 179 182 187
303 312 307 302 302 303 297 293 292 285 278 282 285 268 261 264 262 273 273 269 279 261 253 263 266 254 205 191 181 177 174 167 165 170 172 172 173 173 171 169 169 170 184 194
309 303 292 302 295 291 293 288 280 285 283 285 285 284 260 252 260 270 267 273 277 263 253 251 252 223 196 197 185 179 174 168 170 170 173 173 171 172 176 180 186 190 194 196
324 318 313 306 307 303 299 292 284 281 280 282 274 279 283 255 245 258 266 272 267 253 241 244 229 208 194 192 181 175 172 171 172 170 166 167 169 174 173 178 189 197 201 201
327 321 326 319 313 309 304 296 285 277 271 275 279 274 265 254 246 256 261 265 245 237 235 228 218 196 184 180 176 172 169 169 168 166 171 174 169 165 169 175 185 186 183 193
327 322 321 315 313 312 312 311 300 280 262 252 275 268 253 276 273 259 259 250 220 214 215 213 200 179 171 171 173 170 167 168 172 177 172 166 166 169 172 174 185 179 187 201
334 330 332 331 329 327 336 338 330 297 251 246 272 264 263 273 263 247 234 204 201 199 198 192 181 172 171 171 167 167 166 162 165 168 169 167 170 173 176 180 186 189 210 212
342 340 341 343 346 349 349 357 2 2 282 244 271 248 260 243 234 217 196 190 199 203 188 175 171 167 163 162 166 168 169 172 173 173 173 171 172 179 182 183 188 191 207 229
345 341 343 350 353 353 351 356 358 354 316 286 268 261 250 226 204 186 169 173 182 181 168 165 166 167 162 159 168 174 174 172 177 178 174 173 180 182 184 188 193 197 205 213
347 346 347 353 353 355 354 345 341 336 325 295 260 237 208 186 174 165 177 188 170 170 167 169 172 171 166 158 179 174 171 179 183 181 174 182 186 185 192 195 198 204 213 224
343 346 350 351 351 354 355 356 350 343 332 304 255 209 189 176 171 170 171 184 177 171 173 175 177 174 167 176 186 179 179 184 184 184 180 187 188 189 200 205 204 214 217 229
343 347 348 350 349 350 357 352 353 353 342 306 248 200 182 168 170 181 201 184 179 176 182 188 186 182 187 190 190 187 186 188 184 184 186 189 192 198 205 212 210 219 222 219
338 338 341 347 351 349 348 354 344 343 331 315 223 189 171 179 172 190 197 188 180 187 196 196 195 195 196 199 200 198 196 192 188 191 194 193 199 205 204 214 214 217 229 238
333 333 334 336 339 345 344 345 347 331 313 310 253 205 186 196 199 205 208 200 190 201 204 202 199 201 203 206 208 205 199 197 193 192 198 196 202 206 208 217 222 225 232 243
327 331 331 333 334 335 340 340 338 337 316 288 280 249 218 218 223 226 220 211 203 210 211 208 205 206 208 210 212 207 200 204 201 195 197 198 206 208 212 223 228 237 248 255